Moab, UT

2:24 AM MST on February 06, 2016 (GMT -0700)
Canyonlands

Weather History for KCNY - June, 2013

Change the Weather History Date:

Saturday, June 22, 2013

  Actual Average Record
Temperature  
Mean Temperature 77 °F 75 °F  
Max Temperature 92 °F 92 °F 107 °F (1953)
Min Temperature 62 °F 59 °F 44 °F (1989)
Degree Days  
Heating Degree Days 0 0  
Month to date heating degree days 0 15  
Since 1 June heating degree days 0 15  
Since 1 July heating degree days 6046 5575  
Cooling Degree Days 12 10  
Month to date cooling degree days 260 161  
Year to date cooling degree days 340 225  
Since 1 June cooling degree days 260 161  
Growing Degree Days 28 (Base 50)    
Moisture  
Dew Point 15 °F    
Average Humidity 10    
Maximum Humidity 15    
Minimum Humidity 5    
Precipitation  
Precipitation 0.00 in 0.02 in 0.76 in (1948)
Month to date precipitation T 0.37  
Year to date precipitation 1.72 3.57  
Sea Level Pressure  
Sea Level Pressure 29.68 in    
Wind  
Wind Speed 11 mph (West)    
Max Wind Speed 23 mph    
Max Gust Speed 35 mph    
Visibility 10 miles    
Events      
T = Trace of Precipitation, MM = Missing Value Source: NWS Daily Summary

Daily Weather History Graph

Daily Weather History Graph

Search for Another Location

Airport or City:

Trip Planner

Search our weather history database for the weather conditions in past years. The results will help you decide how hot, cold, wet, or windy it might be!

Date:

Astronomy

Jun. 22, 2013 Rise Set
Actual Time 5:54 AM MDT 8:47 PM MDT
Civil Twilight 5:22 AM MDT 9:19 PM MDT
Nautical Twilight 4:42 AM MDT 9:59 PM MDT
Astronomical Twilight 3:56 AM MDT 10:46 PM MDT
Moon 8:06 PM MDT (6/22) 5:10 AM MDT (6/22)
Length of Visible Light 15h 56m
Length of Day
14h 52m
Waxing Gibbous, 99% of the Moon is Illuminated
Jun 22
Waxing Gibbous
Jun 23
Full
Jun 29
Last Quarter
Jul 8
New
Jul 15
First Quarter

Hourly Weather History & Observations

Time (MDT) Temp. Dew Point Humidity Pressure Visibility Wind Dir Wind Speed Gust Speed Precip Events Conditions
12:53 AM 72.0 °F 12.0 °F 10% 29.63 in 10.0 mi WSW 8.1 mph - N/A   Clear
1:53 AM 72.0 °F 15.1 °F 11% 29.63 in 10.0 mi West 9.2 mph - N/A   Clear
2:53 AM 69.1 °F 15.1 °F 13% 29.64 in 10.0 mi WSW 4.6 mph - N/A   Clear
3:53 AM 66.9 °F 15.1 °F 14% 29.65 in 10.0 mi Calm Calm - N/A   Clear
4:53 AM 64.9 °F 15.1 °F 15% 29.67 in 10.0 mi West 5.8 mph - N/A   Clear
5:53 AM 64.0 °F 16.0 °F 16% 29.69 in 10.0 mi WSW 3.5 mph - N/A   Clear
6:53 AM 69.1 °F 18.0 °F 14% 29.69 in 10.0 mi West 5.8 mph - N/A   Clear
7:53 AM 75.0 °F 19.9 °F 13% 29.69 in 10.0 mi Variable 3.5 mph - N/A   Clear
8:53 AM 81.0 °F 17.1 °F 9% 29.69 in 10.0 mi SW 15.0 mph - N/A   Clear
9:53 AM 82.9 °F 17.1 °F 9% 29.71 in 10.0 mi West 15.0 mph - N/A   Clear
10:53 AM 84.0 °F 17.1 °F 8% 29.71 in 10.0 mi WNW 11.5 mph 21.9 mph N/A   Clear
11:53 AM 84.9 °F 16.0 °F 8% 29.71 in 10.0 mi West 16.1 mph 23.0 mph N/A   Clear
12:53 PM 88.0 °F 15.1 °F 7% 29.71 in 10.0 mi West 12.7 mph 24.2 mph N/A   Clear
1:53 PM 88.0 °F 12.9 °F 6% 29.69 in 10.0 mi West 8.1 mph 27.6 mph N/A   Clear
2:53 PM 90.0 °F 12.9 °F 6% 29.67 in 10.0 mi West 12.7 mph 19.6 mph N/A   Clear
3:53 PM 90.0 °F 12.0 °F 6% 29.65 in 10.0 mi WSW 12.7 mph 19.6 mph N/A   Clear
4:13 PM 89.6 °F 10.4 °F 5% 29.84 in 10.0 mi WNW 10.4 mph 23.0 mph N/A   Clear
4:53 PM 90.0 °F 10.9 °F 5% 29.64 in 10.0 mi SW 9.2 mph 17.3 mph N/A   Clear
5:53 PM 91.9 °F 12.0 °F 5% 29.62 in 10.0 mi WNW 17.3 mph 27.6 mph N/A   Clear
6:53 PM 90.0 °F 12.0 °F 6% 29.61 in 10.0 mi West 18.4 mph 25.3 mph N/A   Clear
7:53 PM 87.1 °F 17.1 °F 8% 29.62 in 10.0 mi NW 18.4 mph 23.0 mph N/A   Clear
8:53 PM 82.0 °F 16.0 °F 8% 29.64 in 10.0 mi WNW 18.4 mph - N/A   Clear
9:53 PM 77.0 °F 16.0 °F 10% 29.68 in 10.0 mi WNW 12.7 mph - N/A   Clear
10:53 PM 73.0 °F 18.0 °F 12% 29.70 in 10.0 mi NW 10.4 mph - N/A   Clear
11:53 PM 70.0 °F 16.0 °F 13% 29.71 in 10.0 mi West 9.2 mph - N/A   Clear